Regional Weather Roundup
Issued by NWS

Home | Current Version | Previous Version | Graphics & Text | Print | Product List | Glossary On
Versions: 1 2 3 4 5 6 7 8 9 10 11 12 13 14 15 16 17 18 19 20 21 22 23 24 25 26 27 28 29 30 31 32 33 34 35 36 37 38 39 40 41 42 43 44 45 46 47 48 49 50
000
ASUS43 KOAX 230010
RWRNE

WEATHER ROUNDUP FOR NEBRASKA
NATIONAL WEATHER SERVICE OMAHA NE
600 PM CST MON JAN 22 2018

NOTES: SATELLITE DATA IS BEING USED TO AUGMENT CLOUD COVER ABOVE
       12000 FEET.
       "FAIR" INDICATES FEW OR NO CLOUDS BELOW 12,000 FEET WITH NO
       SIGNIFICANT WEATHER AND/OR OBSTRUCTIONS TO VISIBILITY.


NEZ001>004-019>022-054>056-230100-
NEBRASKA PANHANDLE

CITY           SKY/WX    TMP DP  RH WIND       PRES   REMARKS
SCOTTSBLUFF    CLEAR     28  18  66 NW12      30.04R WCI  18
6HR MIN TEMP:  25; 6HR MAX TEMP:  32;

ALLIANCE       CLEAR     23  15  71 NW9       30.00R WCI  13
6HR MIN TEMP:  22; 6HR MAX TEMP:  31;

CHADRON        CLEAR     17  10  74 W3        30.05R
6HR MIN TEMP:  15; 6HR MAX TEMP:  26;

GORDON         FAIR      24  15  68 W13       29.98S WCI  12
6HR MIN TEMP:  24; 6HR MAX TEMP:  29;

KIMBALL        CLEAR     26  14  61 NW17      30.02R WCI  13
SIDNEY         CLEAR     28  16  60 NW22      30.01R WCI  14
6HR MIN TEMP:  28; 6HR MAX TEMP:  32;

$$

NEZ057>060-069>072-079>082-230100-
SOUTHWEST NEBRASKA

CITY           SKY/WX    TMP DP  RH WIND       PRES   REMARKS
NORTH PLATTE   CLEAR     28  17  63 W15       29.98R WCI  16
6HR MIN TEMP:  26; 6HR MAX TEMP:  34; 6HR PCP: TRACE;

IMPERIAL       CLEAR     28  18  66 NW15      30.01R WCI  16
6HR MIN TEMP:  28; 6HR MAX TEMP:  31; 6HR PCP: TRACE;

LEXINGTON      CLEAR     29  22  73 NW13      29.93R WCI  19
MCCOOK         CLEAR     28  20  71 NW18      29.98R WCI  15
6HR MIN TEMP:  28; 6HR MAX TEMP:  33;

OGALLALA       CLEAR     31  19  60 NW16      30.00R WCI  20
$$

NEZ005>010-023>029-035>040-094-230100-
NORTH CENTRAL NEBRASKA

CITY           SKY/WX    TMP DP  RH WIND       PRES   REMARKS
VALENTINE      CLEAR     28  20  71 NW13      29.98R WCI  17
6HR MIN TEMP:  28; 6HR MAX TEMP:  32;

AINSWORTH      CLEAR     27  23  87 NW15      29.95R WCI  15
BROKEN BOW     CLEAR     28  20  71 NW20      29.91R WCI  15
6HR MIN TEMP:  28; 6HR MAX TEMP:  32; 6HR PCP: TRACE;

O`NEILL        CLOUDY    24  24  97 NW23      29.92R WCI   9
ORD            PTCLDY    28  22  78 NW21      29.88R WCI  15
6HR MIN TEMP:  27; 6HR MAX TEMP:  30; 6HR PCP: TRACE;

THEDFORD       CLEAR     27  20  75 NW13      29.96R WCI  16
$$

NEZ041-046>049-061>064-073>077-083>087-230100-
SOUTH CENTRAL NEBRASKA

CITY           SKY/WX    TMP DP  RH WIND       PRES   REMARKS
GRAND ISLAND   PTCLDY    27  22  81 NW24G36   29.85R WCI  12
6HR MIN TEMP:  27; 6HR MAX TEMP:  28; 6HR PCP: TRACE;

AURORA           N/A     26  24  91 NW29G37   29.84R WCI  10
HASTINGS       CLOUDY    30  22  72 NW25G33   29.86R WCI  16
6HR MIN TEMP:  28; 6HR MAX TEMP:  31;

HEBRON         CLOUDY    32  27  80 NW21G26   29.82R WCI  20
HOLDREGE       CLOUDY    29  25  82 NW8       29.91R WCI  21
KEARNEY        PTCLDY    30  23  75 NW16G25   29.89R WCI  19
YORK           LGT SNOW  27  27 100 NW29      29.80R WCI  11
$$

NEZ011>018-030>034-042>045-230100-
NORTHEAST NEBRASKA

CITY           SKY/WX    TMP DP  RH WIND       PRES   REMARKS
NORFOLK        LGT SNOW  24  22  91 N26G36    29.82R FOG     WCI   8
6HR MIN TEMP:  24; 6HR MAX TEMP:  26; 6HR PCP: TRACE;

ALBION         MIX PCPN  26  23  87 N23G38    29.86R WCI  11
BLAIR          CLOUDY    31  28  90 NW28G38   29.67R WCI  16
COLUMBUS       LGT SNOW  25  23  92 MISG      29.81R FOG
FREMONT          N/A    N/A N/A N/A MISG        N/A
TEKAMAH        LGT SNOW  30  29  96 N28G38    29.72R VSB 1   WCI  15
6HR MIN TEMP:  30; 6HR MAX TEMP:  32;

WAYNE            N/A     26  25  96 NW29G37   29.78R WCI  10
$$

NEZ050>053-065>068-078-088>093-230100-
SOUTHEAST NEBRASKA

CITY           SKY/WX    TMP DP  RH WIND       PRES   REMARKS
LINCOLN        CLOUDY    28  24  85 NW21G38   29.77R BLWGSNOWWCI  15
6HR MIN TEMP:  28; 6HR MAX TEMP:  30; 6HR PCP:  0.06;

OMAHA EPPLEY   LGT SNOW  31  28  89 N31G47    29.68R VSB 3/4 WCI  16
6HR MIN TEMP:  31; 6HR MAX TEMP:  33; 6HR PCP:  0.07;

BEATRICE       MIX PCPN  29  27  91 NW28G33   29.75R WCI  14
FALLS CITY     CLOUDY    32  27  81 NW24G39   29.62R WCI  19
6HR MIN TEMP:  32; 6HR MAX TEMP:  35;

NEBRASKA CITY  LGT SNOW  31  31 100 N29G36    29.65R WCI  17
PLATTSMOUTH    LGT SNOW  31  30  96 NW25G38   29.65R WCI  17
$$

NEZ044-045-051>053-067-230100-
OMAHA AREA

CITY           SKY/WX    TMP DP  RH WIND       PRES   REMARKS
OMAHA EPPLEY   LGT SNOW  31  28  89 N31G47    29.68R VSB 3/4 WCI  16
6HR MIN TEMP:  31; 6HR MAX TEMP:  33; 6HR PCP:  0.07;

BLAIR          CLOUDY    31  28  90 NW28G38   29.67R WCI  16
FREMONT          N/A    N/A N/A N/A MISG        N/A
MILLARD        LGT SNOW  32  29  89 NW20G29   29.70R WCI  20
OFFUTT AFB     LGT SNOW  30  28  93 N25G36    29.67R FOG     WCI  16
PLATTSMOUTH    LGT SNOW  31  30  96 NW25G38   29.65R WCI  17
WAHOO          CLOUDY    28  26  91 NW26G40   29.74R WCI  13
$$




USA.gov is the U.S. government's official web portal to all federal, state and local government web resources and services.